Weather History for Spirit of St Louis, MO

Change the Weather History Date:

Wednesday, January 30, 2013

  Actual Average Record
Temperature  
Mean Temperature 40 °F -  
Max Temperature 53 °F 39 °F 46 °F (2014)
Min Temperature 28 °F 21 °F 25 °F (2014)
Degree Days  
Heating Degree Days 24    
Moisture  
Dew Point 34 °F    
Average Humidity 78    
Maximum Humidity 94    
Minimum Humidity 58    
Precipitation  
Precipitation 0.12 in - - ()
Sea Level Pressure  
Sea Level Pressure 29.59 in    
Wind  
Wind Speed 12 mph (West)    
Max Wind Speed 28 mph    
Max Gust Speed 40 mph    
Visibility 9 miles    
Events Rain , Snow    
Averages and records for this station are not official NWS values.
T = Trace of Precipitation, MM = Missing Value Source: NWS Daily Summary

Daily Weather History Graph

Daily Weather History Graph

Search for Another Location

Airport:

Trip Planner

Search our weather history database for the weather conditions in past years. The results will help you decide how hot, cold, wet, or windy it might be!

Date:

Astronomy

Jan. 30, 2013 Rise Set
Actual Time 7:09 AM CST 5:22 PM CST
Civil Twilight 6:41 AM CST 5:50 PM CST
Nautical Twilight 6:09 AM CST 6:22 PM CST
Astronomical Twilight 5:38 AM CST 6:53 PM CST
Moon 9:17 PM CST (1/30) 8:40 AM CST (1/30)
Length of Visible Light 11h 08m
Length of Day
10h 12m
Waning Gibbous, 87% of the Moon is Illuminated
Jan 30
Waning Gibbous
Feb 3
Last Quarter
Feb 10
New
Feb 17
First Quarter
Feb 25
Full

Hourly Weather History & Observations

Time (CST) Temp. Windchill Dew Point Humidity Pressure Visibility Wind Dir Wind Speed Gust Speed Precip Events Conditions
12:54 AM 53.1 °F - 51.1 °F 93% 29.45 in 10.0 mi SSE 8.1 mph - 0.03 in Rain Light Rain
1:12 AM 53.6 °F - 51.8 °F 94% 29.45 in 10.0 mi South 8.1 mph - 0.00 in Rain Light Rain
1:34 AM 53.6 °F - 50.0 °F 88% 29.49 in 10.0 mi SW 9.2 mph - 0.01 in Rain Light Rain
1:42 AM 53.6 °F - 50.0 °F 88% 29.49 in 10.0 mi WSW 6.9 mph - 0.01 in Rain Light Rain
1:54 AM 53.1 °F - 50.0 °F 89% 29.50 in 8.0 mi SW 10.4 mph - 0.02 in Rain Light Rain
2:08 AM 53.6 °F - 50.0 °F 88% 29.52 in 10.0 mi SW 8.1 mph - 0.01 in Rain Light Rain
2:17 AM 53.6 °F - 50.0 °F 88% 29.49 in 6.0 mi SSW 4.6 mph - 0.01 in Rain Light Rain
2:54 AM 52.0 °F - 48.9 °F 89% 29.38 in 10.0 mi ESE 4.6 mph - 0.02 in   Mostly Cloudy
3:54 AM 52.0 °F - 48.9 °F 89% 29.37 in 10.0 mi SSE 5.8 mph - N/A   Clear
4:54 AM 52.0 °F - 48.0 °F 86% 29.38 in 10.0 mi South 8.1 mph - N/A   Clear
5:54 AM 51.1 °F - 48.0 °F 89% 29.38 in 10.0 mi South 8.1 mph - N/A   Clear
6:30 AM 51.8 °F - 46.4 °F 82% 29.38 in 10.0 mi SSW 8.1 mph - N/A   Mostly Cloudy
6:54 AM 48.0 °F - 44.1 °F 86% 29.40 in 3.0 mi West 23.0 mph 28.8 mph 0.05 in Rain Light Rain
7:02 AM 46.4 °F 38.7 °F 42.8 °F 87% 29.41 in 10.0 mi West 20.7 mph 32.2 mph 0.00 in   Overcast
7:36 AM 44.6 °F 37.8 °F 39.2 °F 81% 29.42 in 10.0 mi West 15.0 mph 27.6 mph 0.00 in   Overcast
7:54 AM 44.1 °F 36.5 °F 37.9 °F 79% 29.45 in 10.0 mi West 17.3 mph 23.0 mph 0.00 in   Overcast
8:54 AM 43.0 °F 36.4 °F 37.0 °F 80% 29.47 in 10.0 mi West 12.7 mph 24.2 mph N/A   Overcast
9:54 AM 43.0 °F 36.0 °F 36.0 °F 76% 29.49 in 10.0 mi West 13.8 mph - N/A   Overcast
10:54 AM 41.0 °F 32.8 °F 34.0 °F 76% 29.50 in 10.0 mi West 16.1 mph 24.2 mph 0.00 in   Overcast
11:40 AM 37.4 °F 27.5 °F 33.8 °F 87% 29.51 in 5.0 mi WNW 18.4 mph 25.3 mph 0.00 in Rain Light Rain
11:54 AM 36.0 °F 24.2 °F 30.9 °F 82% 29.52 in 4.0 mi WNW 24.2 mph 35.7 mph 0.00 in Rain Light Rain
12:54 PM 35.1 °F 24.1 °F 27.0 °F 72% 29.56 in 10.0 mi WNW 19.6 mph 31.1 mph 0.00 in   Overcast
1:54 PM 33.8 °F 22.5 °F 24.8 °F 70% 29.58 in 10.0 mi West 19.6 mph 34.5 mph N/A   Overcast
2:54 PM 32.0 °F 19.8 °F 24.1 °F 73% 29.63 in 8.0 mi WNW 20.7 mph 29.9 mph 0.00 in Snow Light Snow
3:54 PM 32.0 °F 18.4 °F 23.0 °F 69% 29.68 in 10.0 mi WNW 26.5 mph 33.4 mph 0.00 in   Overcast
4:54 PM 30.9 °F 16.7 °F 21.0 °F 67% 29.71 in 10.0 mi WNW 27.6 mph 40.3 mph N/A   Overcast
5:54 PM 30.0 °F 17.2 °F 21.0 °F 69% 29.76 in 8.0 mi WNW 20.7 mph 36.8 mph 0.00 in Snow Light Snow
6:54 PM 28.9 °F 17.3 °F 19.9 °F 69% 29.81 in 9.0 mi WNW 16.1 mph - 0.00 in Snow Light Snow
7:52 PM 28.4 °F 15.4 °F 15.8 °F 59% 29.82 in 10.0 mi WNW 19.6 mph 29.9 mph 0.00 in   Overcast
7:54 PM 28.9 °F 15.1 °F 17.1 °F 61% 29.84 in 10.0 mi West 23.0 mph 32.2 mph 0.00 in   Overcast
8:54 PM 28.9 °F 16.1 °F 19.0 °F 67% 29.88 in 10.0 mi WNW 19.6 mph 26.5 mph N/A   Overcast
9:54 PM 28.9 °F 17.7 °F 17.1 °F 61% 29.90 in 10.0 mi West 15.0 mph 24.2 mph N/A   Overcast
10:54 PM 28.0 °F 16.5 °F 18.0 °F 66% 29.93 in 9.0 mi WNW 15.0 mph - 0.00 in Snow Light Snow
11:04 PM 28.4 °F 18.0 °F 19.4 °F 69% 29.91 in 8.0 mi WNW 12.7 mph 21.9 mph 0.00 in Snow Light Snow
11:30 PM 28.4 °F 18.0 °F 17.6 °F 64% 29.93 in 9.0 mi West 12.7 mph 19.6 mph 0.00 in   Overcast
11:54 PM 28.0 °F 17.5 °F 15.1 °F 58% 29.96 in 10.0 mi West 12.7 mph 26.5 mph 0.00 in   Overcast